Regional Weather Roundup
Issued by NWS Goodland, KS

Home | Current Version | Previous Version | Text Only | Print | Product List | Glossary On
Versions: 1 2 3 4 5 6 7 8 9 10 11 12 13 14 15 16 17 18 19 20 21 22 23 24 25 26 27 28 29 30 31 32 33 34 35 36 37 38 39 40 41 42 43 44 45 46 47 48 49 50
000
ASUS43 KGLD 240408
RWRGLD

GOODLAND FORECAST AREA HOURLY WEATHER ROUNDUP
NATIONAL WEATHER SERVICE GOODLAND KS
900 PM MST SUN NOV 23 2014

...OFFICIAL OBSERVATIONS...

CITY           SKY/WX    TMP DP  RH WIND       PRES   REMARKS
GOODLAND KS    CLEAR     28  10  46 W13       29.83R WCI  17
HILL CITY KS   FAIR      35  15  44 NW8       29.76S
IMPERIAL NEB   CLEAR     33  15  47 NW13      29.79S
MCCOOK NEB     PTCLDY    33  15  47 W13       29.77R
AKRON CO       CLEAR     25  14  63 W13       29.85S WCI  14
BURLINGTON CO  CLEAR     27  11  51 NW12      29.84S WCI  17
LIMON CO       PTCLDY    23  15  71 NW14      29.87S WCI  11
$$

...UNOFFICIAL OBSERVATIONS...

CITY           SKY/WX    TMP DP  RH WIND       PRES   REMARKS
COLBY KS       CLEAR     30  16  55 W13       29.80S
GOVE KS          N/A     35  32  89 MISG        N/A
NORTON KS      CLEAR     34  16  47 W13       29.74S
SHARON SPRINGS   N/A     27  12  53 NW7         N/A
TRIBUNE KS     PTCLDY    30  18  59 W8        29.88
TRENTON NEB      N/A     32  32 100 NW13        N/A
YUMA CO          N/A     26  12  55 W14         N/A  WCI  14
$$


USA.gov is the U.S. government's official web portal to all federal, state and local government web resources and services.